Regional Weather Roundup
Issued by NWS Newport/Morehead, NC

Current Version | Previous Version | Graphics & Text | Print | Product List | Glossary Off
Versions: 1 2 3 4 5 6 7 8 9 10 11 12 13 14 15 16 17 18 19 20 21 22 23 24 25 26 27 28 29 30 31 32 33 34 35 36 37 38 39 40 41 42 43 44 45 46 47 48 49 50
000 ASUS42 KMHX 290013 RWRMHX WEATHER ROUNDUP FOR EASTERN NORTH CAROLINA NATIONAL WEATHER SERVICE NEWPORT/MOREHEAD CITY NC 800 PM EDT TUE MAR 28 2017 NOTE: "FAIR" INDICATES FEW OR NO CLOUDS BELOW 12,000 FEET WITH NO SIGNIFICANT WEATHER AND/OR OBSTRUCTIONS TO VISIBILITY NCZ015>017-031-032-045>047-102-103-290100- NORTH COAST CITY SKY/WX TMP DP RH WIND PRES REMARKS EDENTON CLOUDY 66 59 77 CALM 29.89R ELIZABETH CITY PTCLDY 65 59 81 SW7 29.87S KITTY HAWK NOT AVBL MANTEO CLOUDY 63 60 88 SW9 29.89S $$ NCZ045>047-081-094-103-104-290100- CENTRAL COAST CITY SKY/WX TMP DP RH WIND PRES REMARKS FRISCO CLOUDY 67 62 84 CALM 29.89S HAZE $$ NCZ095-097-098-100-101-290100- SOUTHERN COAST CITY SKY/WX TMP DP RH WIND PRES REMARKS BEAUFORT LGT RAIN 67 65 93 W12G22 29.92R CEDAR ISLAND NOT AVBL JACKSONVILLE MOCLDY 66 64 93 E6 29.89R PINEY ISLAND NOT AVBL WILMINGTON MOCLDY 70 60 70 SW12 29.88R $$ NCZ011>013-027>030-043-044-078>080-089-090>093-098-290100- COASTAL PLAIN CITY SKY/WX TMP DP RH WIND PRES REMARKS AHOSKIE N/A 59 59 98 CALM 29.89R CLINTON CLEAR 67 63 87 CALM 29.89R ELIZABETHTOWN PTCLDY 71 63 74 CALM 29.88R GOLDSBORO PTCLDY 68 64 85 CALM 29.87R GREENVILLE MOCLDY 63 59 88 CALM 29.93R HAVELOCK MOCLDY 65 62 90 CALM 29.91R KENANSVILLE PTCLDY 63 63 100 CALM 29.89R FOG KINSTON CLEAR 64 63 94 CALM 29.89S NEW BERN PTCLDY 63 63 100 CALM 29.90S RICHLANDS PTCLDY 66 65 96 NE5 29.90R ROCKY MOUNT CLOUDY 65 61 87 E3 29.90R WASHINGTON PTCLDY 62 59 92 SE3 29.91R WHITEVILLE MOCLDY 73 61 66 CALM 29.88R $$ AMZ130-135-150-152-154-156-158-170-250-252-270-ANZ085-086-088-633-658-670-290100- MARINE OBSERVATIONS STATION/POSITION TIME TEMP WIND PRES WAVE SWELL AIR SEA DIR/SP/G HT/PER HT/PER (UTC) (F) (DEG/KT/KT) (MB) (FT/S) (FT/S) CHESAPEAKE LIGHT NOT AVBL 64 E VA BEACH 2350 53 49 210/ 8/ 8 1011.1 4/ 9 3/ 9 DUCK 2336 66 47 220/ 7/ 9 1011.1 2 E DUCK 2330 50 N/A 3/ 9 2/11 OREGON INLET 2336 63 60 200/ 10/ 11 1011.8 13E OREGON INLT 2348 53 N/A 4/11 3/11 HATTERAS CG 2336 67 62 190/ 4/ 7 1011.4 DIAMOND BUOY 2350 73 75 230/ 14/ 17 1011.7 4/10 3/10 CAPE LOOKOUT 2300 68 220/ 8/ 14 1011.5 BEAUFORT LAB 2336 66 62 230/ 6/ 11 1011.4 30 SE NEW RVR IN 2308 68 230/ 10/ 14 1011.8 30 SE NEW RVR IN 2343 65 N/A 6/10 2/11 27 SE WRIGHTSVLE 2308 70 68 210/ 16/ 21 1010.8 5 SE WRIGHTSVLE 2308 64 59 210/ 12/ 19 1011.9 225 S CAPE HAT 2350 70 73 190/ 10/ 12 1015.7 6/ 9 5/ 9 41 SE CHARLESTON 2350 72 72 210/ 16/ 17 1012.6 5/10 5/10 $$

USA.gov is the U.S. government's official web portal to all federal, state and local government web resources and services.